When you browse on this site, cookies collect data to enhance your experience and personalize the content and advertising you see.
Visit our Privacy Policy to learn more. By continuing to use the site, you agree to this use of cookies and data.
  • In United Kingdom
  • List of Countries
  • For 7 days
  • Water Temperature
  • Satellite Maps
  • Weather Map
  • Weather Widgets
  • user-avatar
    Login

    Hourly Weather Olesno

    Today, 22 February, Friday

    Time Temperature Precipitation Wind Pressure Humidity
    00:00 +5°C° 0.2 mm 5 mps 743 mmHg 93%
    01:00 +5°C° 0.2 mm 5 mps 743 mmHg 94%
    02:00 +5°C° 0.4 mm 5 mps 743 mmHg 94%
    03:00 +5°C° 0.4 mm 5 mps 743 mmHg 93%
    04:00 +3°C° 0.4 mm 5 mps 744 mmHg 93%
    05:00 +2°C° 0.2 mm 6 mps 745 mmHg 89%
    06:00 -1°C° 0.2 mm 6 mps 746 mmHg 84%
    07:00 -3°C° 0.2 mm 7 mps 747 mmHg 79%
    08:00 -3°C° 0 mm 7 mps 748 mmHg 72%
    09:00 -3°C° 0 mm 7 mps 750 mmHg 65%
    10:00 -3°C° 0 mm 6 mps 751 mmHg 57%
    11:00 -3°C° 0 mm 6 mps 752 mmHg 52%
    12:00 -3°C° 0 mm 6 mps 753 mmHg 48%
    13:00 -3°C° 0 mm 6 mps 754 mmHg 43%
    14:00 -3°C° 0 mm 6 mps 754 mmHg 43%
    15:00 -3°C° 0 mm 6 mps 755 mmHg 43%
    16:00 -4°C° 0 mm 5 mps 755 mmHg 43%
    17:00 -4°C° 0 mm 5 mps 756 mmHg 45%
    18:00 -5°C° 0 mm 5 mps 756 mmHg 47%
    19:00 -6°C° 0 mm 5 mps 757 mmHg 49%
    20:00 -5°C° 0 mm 4 mps 758 mmHg 47%
    21:00 -5°C° 0 mm 4 mps 758 mmHg 46%
    22:00 -5°C° 0 mm 4 mps 759 mmHg 44%
    23:00 -5°C° 0 mm 4 mps 759 mmHg 42%

    Tomorrow, 23 February, Saturday

    Time Temperature Precipitation Wind Pressure Humidity
    00:00 -5°C° 0 mm 3 mps 759 mmHg 40%
    01:00 -5°C° 0 mm 3 mps 759 mmHg 38%
    02:00 -5°C° 0 mm 3 mps 759 mmHg 38%
    03:00 -5°C° 0 mm 3 mps 759 mmHg 38%
    04:00 -4°C° 0 mm 2 mps 759 mmHg 38%
    05:00 -4°C° 0 mm 2 mps 759 mmHg 38%
    06:00 -4°C° 0 mm 2 mps 759 mmHg 39%
    07:00 -4°C° 0 mm 2 mps 760 mmHg 39%
    08:00 -4°C° 0 mm 2 mps 760 mmHg 37%
    09:00 -3°C° 0 mm 2 mps 760 mmHg 34%
    10:00 -3°C° 0 mm 2 mps 760 mmHg 31%
    11:00 -2°C° 0 mm 2 mps 760 mmHg 29%
    12:00 -1°C° 0 mm 2 mps 760 mmHg 27%
    13:00 -1°C° 0 mm 2 mps 759 mmHg 25%
    14:00 +1°C° 0 mm 1 mps 759 mmHg 25%
    15:00 +1°C° 0 mm 1 mps 759 mmHg 26%
    16:00 +1°C° 0 mm 1 mps 758 mmHg 27%
    17:00 +1°C° 0 mm 1 mps 758 mmHg 30%
    18:00 0°C° 0 mm 1 mps 758 mmHg 32%
    19:00 -1°C° 0 mm 1 mps 758 mmHg 35%
    20:00 -1°C° 0 mm 1 mps 758 mmHg 36%
    21:00 -1°C° 0 mm 1 mps 758 mmHg 36%
    22:00 -1°C° 0 mm 1 mps 758 mmHg 36%
    23:00 -1°C° 0 mm 1 mps 758 mmHg 36%

    Day after tomorrow, 24 February, Sunday

    Time Temperature Precipitation Wind Pressure Humidity
    00:00 -1°C° 0 mm 1 mps 758 mmHg 37%
    01:00 -1°C° 0 mm 1 mps 757 mmHg 37%
    02:00 -1°C° 0 mm 1 mps 757 mmHg 36%
    03:00 0°C° 0 mm 1 mps 757 mmHg 36%
    04:00 0°C° 0 mm 1 mps 757 mmHg 36%
    05:00 0°C° 0 mm 1 mps 757 mmHg 35%
    06:00 0°C° 0 mm 1 mps 757 mmHg 35%
    07:00 0°C° 0 mm 1 mps 757 mmHg 35%
    08:00 -1°C° 0 mm 2 mps 757 mmHg 33%
    09:00 +1°C° 0 mm 2 mps 757 mmHg 30%
    10:00 +2°C° 0 mm 2 mps 756 mmHg 27%
    11:00 +3°C° 0 mm 2 mps 756 mmHg 27%
    12:00 +4°C° 0 mm 2 mps 756 mmHg 27%
    13:00 +5°C° 0 mm 2 mps 756 mmHg 26%
    14:00 +5°C° 0 mm 2 mps 756 mmHg 32%
    15:00 +4°C° 0 mm 2 mps 756 mmHg 37%
    16:00 +4°C° 0 mm 2 mps 756 mmHg 43%
    17:00 +3°C° 0 mm 2 mps 756 mmHg 46%
    18:00 +2°C° 0 mm 2 mps 756 mmHg 50%
    19:00 +1°C° 0 mm 2 mps 756 mmHg 53%
    20:00 +1°C° 0 mm 2 mps 756 mmHg 55%
    21:00 +1°C° 0 mm 2 mps 756 mmHg 57%
    22:00 +1°C° 0 mm 2 mps 756 mmHg 59%
    23:00 -1°C° 0 mm 2 mps 756 mmHg 61%

    25 February, Monday

    Time Temperature Precipitation Wind Pressure Humidity
    00:00 -1°C° 0 mm 2 mps 756 mmHg 63%
    01:00 -1°C° 0 mm 2 mps 756 mmHg 65%
    02:00 -1°C° 0 mm 2 mps 756 mmHg 66%
    03:00 -1°C° 0 mm 2 mps 756 mmHg 68%
    04:00 -1°C° 0 mm 2 mps 756 mmHg 70%
    05:00 -1°C° 0 mm 2 mps 756 mmHg 71%
    06:00 -1°C° 0 mm 2 mps 756 mmHg 73%
    07:00 -1°C° 0 mm 2 mps 756 mmHg 74%
    08:00 +1°C° 0 mm 2 mps 756 mmHg 70%
    09:00 +2°C° 0 mm 3 mps 756 mmHg 66%
    10:00 +3°C° 0 mm 3 mps 756 mmHg 62%
    11:00 +4°C° 0 mm 3 mps 756 mmHg 62%
    12:00 +5°C° 0 mm 3 mps 756 mmHg 61%
    13:00 +7°C° 0 mm 3 mps 755 mmHg 60%
    14:00 +7°C° 0 mm 3 mps 755 mmHg 62%
    15:00 +7°C° 0 mm 3 mps 755 mmHg 64%
    16:00 +7°C° 0 mm 3 mps 755 mmHg 66%
    17:00 +6°C° 0 mm 2 mps 755 mmHg 71%
    18:00 +5°C° 0 mm 2 mps 755 mmHg 76%
    19:00 +4°C° 0 mm 2 mps 755 mmHg 81%
    20:00 +4°C° 0 mm 2 mps 755 mmHg 82%
    21:00 +3°C° 0 mm 2 mps 755 mmHg 83%
    22:00 +3°C° 0 mm 2 mps 754 mmHg 84%
    23:00 +3°C° 0 mm 2 mps 754 mmHg 84%

    26 February, Tuesday

    Time Temperature Precipitation Wind Pressure Humidity
    00:00 +2°C° 0 mm 2 mps 754 mmHg 84%
    01:00 +1°C° 0 mm 3 mps 753 mmHg 84%
    02:00 +1°C° 0 mm 3 mps 753 mmHg 86%
    03:00 +1°C° 0 mm 3 mps 752 mmHg 87%
    04:00 +1°C° 0 mm 3 mps 752 mmHg 89%
    05:00 +1°C° 0 mm 3 mps 751 mmHg 89%
    06:00 +1°C° 0 mm 3 mps 751 mmHg 89%
    07:00 0°C° 0 mm 4 mps 751 mmHg 89%
    08:00 +1°C° 0 mm 4 mps 751 mmHg 83%
    09:00 +2°C° 0 mm 5 mps 750 mmHg 77%
    10:00 +5°C° 0 mm 5 mps 750 mmHg 70%
    11:00 +5°C° 0 mm 5 mps 750 mmHg 69%
    12:00 +6°C° 0 mm 5 mps 750 mmHg 68%
    13:00 +6°C° 0 mm 5 mps 750 mmHg 67%
    14:00 +7°C° 0 mm 5 mps 750 mmHg 68%
    15:00 +7°C° 0 mm 4 mps 750 mmHg 69%
    16:00 +7°C° 0 mm 4 mps 750 mmHg 71%
    17:00 +7°C° 0 mm 3 mps 750 mmHg 77%
    18:00 +5°C° 0 mm 3 mps 750 mmHg 83%
    19:00 +3°C° 0 mm 3 mps 750 mmHg 90%
    20:00 +3°C° 0 mm 3 mps 750 mmHg 91%
    21:00 +3°C° 0 mm 3 mps 750 mmHg 93%
    22:00 +2°C° 0 mm 3 mps 750 mmHg 94%
    23:00 +2°C° 0 mm 3 mps 750 mmHg 94%

    27 February, Wednesday

    Time Temperature Precipitation Wind Pressure Humidity
    00:00 +2°C° 0 mm 3 mps 750 mmHg 94%
    01:00 +1°C° 0 mm 3 mps 750 mmHg 94%
    02:00 +1°C° 0 mm 3 mps 750 mmHg 94%
    03:00 +1°C° 0 mm 2 mps 750 mmHg 94%
    04:00 +1°C° 0 mm 2 mps 750 mmHg 93%
    05:00 +1°C° 0 mm 2 mps 750 mmHg 91%
    06:00 +1°C° 0 mm 2 mps 750 mmHg 90%
    07:00 -1°C° 0 mm 2 mps 749 mmHg 88%
    08:00 +2°C° 0 mm 2 mps 749 mmHg 79%
    09:00 +4°C° 0 mm 2 mps 749 mmHg 69%
    10:00 +5°C° 0 mm 2 mps 749 mmHg 60%
    11:00 +7°C° 0 mm 2 mps 749 mmHg 56%
    12:00 +8°C° 0 mm 2 mps 748 mmHg 53%
    13:00 +9°C° 0 mm 3 mps 748 mmHg 49%
    14:00 +10°C° 0 mm 3 mps 747 mmHg 50%
    15:00 +10°C° 0 mm 3 mps 746 mmHg 52%
    16:00 +10°C° 0 mm 3 mps 746 mmHg 54%
    17:00 +9°C° 0 mm 3 mps 745 mmHg 59%
    18:00 +8°C° 0 mm 3 mps 745 mmHg 65%
    19:00 +7°C° 0 mm 3 mps 744 mmHg 70%
    20:00 +7°C° 0 mm 3 mps 744 mmHg 75%
    21:00 +5°C° 0 mm 3 mps 743 mmHg 80%
    22:00 +5°C° 0 mm 3 mps 742 mmHg 84%
    23:00 +5°C° 0 mm 3 mps 742 mmHg 87%
    Show more